Location: Arbon
(43.0005°N, 0.7472°E)
Time: 18:28:06
(UTC+00:00)

Resurs 1-4 Rocket - Pass Details

Date: 07 August 2020
Orbit: 799 x 815 km, 98.6° (Epoch: 23 September)

Event Time Altitude Azimuth Distance (km) Brightness Sun altitude
Rises 03:12:06 0° 357° (N) 3,332 5.9 -16.5°
Reaches altitude 10° 03:15:25 10° 335° (NNW) 2,393 4.8 -16.1°
Maximum altitude 03:18:19 15° 301° (WNW) 2,046 4.0 -15.7°
Enters shadow 03:20:28 12° 275° (W) 2,236 4.0 -15.4°
